Wind_Speed
40 39 39 38 38 37 36 36 36 36 36 35 33 34 34 33 32 30 29 28 27 26 26 26 25 25 25 24 22 22 22 23 22 20 19 18 17 16 16 17 18 19
42 40 40 39 38 38 37 37 37 37 37 36 35 35 36 35 33 32 29 28 27 26 26 26 26 26 25 25 23 22 22 22 21 20 20 19 18 17 16 17 18 19
46 43 41 40 39 39 38 38 38 37 38 38 37 36 36 36 35 34 31 29 28 27 26 26 27 26 26 25 24 23 23 22 21 21 20 20 18 17 17 17 18 19
51 46 43 41 41 40 40 39 38 37 38 39 37 37 37 37 37 36 33 31 29 28 26 26 28 27 26 26 25 23 23 22 22 21 21 20 19 18 17 17 18 19
52 48 45 43 42 42 41 40 39 37 38 39 38 38 38 39 39 38 36 33 31 29 27 26 28 28 27 26 25 24 23 23 22 22 21 20 20 18 18 18 18 19
51 49 47 44 43 43 43 41 39 38 38 39 39 39 40 40 40 40 38 36 33 29 27 27 28 29 28 27 26 25 24 23 23 22 21 21 20 19 18 18 18 19
49 48 48 46 44 44 44 42 40 39 39 40 40 40 41 42 42 41 40 38 35 30 27 27 28 30 29 27 27 26 24 24 23 22 22 21 21 21 19 19 19 19
48 48 48 46 45 45 45 44 42 40 40 41 41 42 43 43 43 43 42 40 37 31 28 28 29 30 30 28 27 27 25 24 24 23 23 22 22 21 20 20 20 20
47 48 49 48 47 46 46 45 43 42 41 42 43 43 44 45 44 44 43 41 38 32 28 28 29 30 31 29 28 27 26 25 25 25 24 23 22 21 21 20 21 20
48 50 51 49 48 47 47 46 45 44 43 43 43 44 45 46 46 45 44 42 39 33 29 29 30 30 31 30 28 28 27 26 26 26 25 23 22 22 21 21 22 21
51 53 54 51 50 48 47 47 46 45 44 43 44 45 46 47 47 46 45 42 39 35 31 31 31 31 32 30 28 28 28 27 27 27 26 24 23 22 22 22 23 22
54 55 56 53 50 49 48 47 47 47 45 44 45 46 46 48 48 47 45 42 39 36 33 32 32 32 32 30 28 29 29 28 28 28 27 25 23 23 23 24 24 23
54 55 57 53 50 49 48 48 48 48 46 45 46 47 47 48 49 48 46 43 40 37 34 33 33 32 32 31 29 29 30 29 29 29 28 25 24 24 24 25 25 24
55 57 58 54 51 51 50 50 50 48 47 46 47 47 48 49 50 49 46 43 40 37 35 34 33 31 31 31 30 30 30 30 30 30 28 26 25 25 25 26 26 25
57 59 59 56 54 53 52 52 50 49 48 48 48 48 48 50 51 50 47 43 40 37 35 34 33 31 31 31 31 31 31 31 31 30 29 27 26 26 26 26 27 27
60 60 61 59 56 54 52 51 50 50 50 49 49 49 50 51 52 50 48 43 39 36 35 35 33 31 31 32 33 32 31 32 32 31 30 28 26 26 26 27 28 28
62 61 62 61 58 55 53 52 51 51 51 50 50 51 52 53 51 50 48 42 37 36 35 35 33 31 31 33 34 32 31 32 32 32 32 29 27 27 27 27 28 28
64 64 62 61 60 58 56 54 52 52 52 52 52 52 53 53 51 50 48 41 36 35 34 35 34 31 32 34 34 33 32 33 33 33 33 31 29 28 28 28 28 28
66 66 64 62 61 59 58 56 54 53 53 53 53 54 54 53 51 50 48 40 34 34 34 34 34 32 32 34 34 33 33 33 34 34 34 33 31 30 29 28 28 27
66 66 65 64 64 62 60 58 56 55 55 55 55 55 55 53 51 51 48 41 34 34 35 35 35 33 33 34 34 34 33 34 35 35 35 34 33 32 30 29 28 28
65 65 65 64 64 63 62 60 57 56 56 57 57 56 54 53 52 51 48 42 35 34 36 37 36 34 34 35 35 35 34 35 36 35 35 36 35 34 32 29 28 28
62 63 63 62 62 62 61 60 58 58 58 58 58 57 55 53 52 51 48 42 36 35 37 38 37 35 35 35 35 35 35 35 36 35 35 37 37 35 33 30 28 29
60 60 60 59 60 61 60 60 58 58 59 60 59 57 55 53 52 51 47 42 37 36 39 40 38 37 37 36 35 36 35 36 36 35 35 38 38 36 34 31 29 30
60 59 58 57 58 59 58 58 58 58 60 61 59 57 55 53 52 51 47 42 37 37 40 41 38 37 38 36 36 36 36 36 37 36 36 38 38 37 35 33 32 32
60 59 57 56 56 56 56 56 56 57 60 61 59 57 55 54 53 51 47 42 38 38 42 41 37 37 38 37 35 35 36 37 37 36 37 38 38 37 37 36 34 34
61 59 58 56 55 55 54 53 53 56 61 61 59 57 56 55 53 50 47 43 40 41 43 40 37 37 38 37 35 35 36 38 38 37 37 37 37 38 38 37 35 35
Wind_Direction
242 248 252 250 246 244 244 248 254 257 261 265 268 272 277 282 286 290 296 299 296 292 292 293 293 294 295 295 292 287 283 284 286 288 289 289 289 293 297 300 303 304
241 247 250 245 241 243 245 248 253 256 260 264 267 271 277 282 285 289 295 298 294 289 290 291 291 292 294 294 292 287 283 283 286 287 286 285 285 288 293 297 300 302
243 245 245 240 238 240 244 248 251 254 258 263 266 271 277 281 285 289 293 297 293 287 287 290 289 290 292 294 292 287 284 283 284 285 283 282 283 285 290 294 296 299
243 242 239 234 234 238 242 246 250 253 258 262 265 270 276 281 285 288 292 296 293 286 286 288 287 288 291 293 293 288 283 282 282 282 281 280 281 282 287 290 293 297
243 238 233 231 232 237 241 246 250 254 258 261 265 269 275 280 283 287 290 294 293 286 284 285 285 286 289 292 293 289 283 280 279 279 279 279 279 280 283 286 290 294
240 236 232 230 231 236 241 245 248 253 256 260 264 268 274 278 281 285 288 292 293 286 281 283 283 284 287 290 292 288 282 279 278 278 278 278 278 279 280 283 287 291
236 231 229 228 229 235 241 244 247 251 254 259 263 267 272 276 279 282 285 289 291 286 280 281 281 282 285 288 290 287 281 278 278 278 277 277 277 278 280 282 285 289
234 227 226 227 229 235 240 244 247 250 253 257 261 266 270 274 277 280 283 287 290 286 281 280 279 280 282 285 288 287 282 279 278 277 276 276 276 279 281 282 285 289
233 226 226 227 229 234 239 243 247 249 252 255 259 263 268 271 275 279 282 285 288 286 281 279 278 277 279 282 286 286 282 279 278 276 275 275 276 279 280 281 284 288
233 229 228 228 230 234 237 241 245 247 250 253 257 261 265 269 273 277 280 284 286 285 281 279 277 274 276 279 283 284 281 277 276 275 274 274 275 278 279 280 282 285
235 231 228 228 230 233 236 240 243 246 248 251 254 258 263 267 272 275 279 282 284 284 281 278 275 272 273 277 280 282 280 276 274 273 272 272 274 276 277 278 280 282
236 231 227 227 230 233 236 238 242 245 247 248 252 257 261 266 270 274 277 280 282 283 281 277 274 271 271 274 278 281 279 275 272 272 271 272 273 275 277 278 279 281
236 231 226 227 230 232 235 237 240 243 245 247 251 256 259 264 269 272 275 277 280 282 280 275 272 270 271 273 275 278 278 274 271 271 271 272 273 275 277 278 279 280
233 229 226 226 229 231 234 236 238 241 244 247 251 255 258 262 267 270 273 275 278 281 278 273 271 270 271 272 274 275 275 273 271 271 271 271 273 275 277 279 280 281
231 228 226 225 228 230 232 234 237 240 243 247 251 254 257 260 264 268 270 273 277 278 275 272 271 270 270 271 272 272 273 272 271 271 271 271 273 276 278 280 281 282
231 228 226 225 227 229 231 234 236 239 243 247 250 253 256 259 262 265 268 272 275 274 272 271 271 270 270 270 270 270 272 272 271 271 271 271 273 276 278 281 282 284
232 231 229 228 228 230 232 235 236 239 243 246 249 252 255 257 260 263 267 270 271 271 271 271 270 270 270 270 269 270 272 272 271 270 270 271 273 275 278 281 283 285
232 232 231 230 231 233 235 237 238 240 242 245 248 251 253 254 257 261 265 267 267 268 271 272 271 271 271 270 269 270 270 271 271 270 270 271 272 275 279 282 285 287
231 233 233 232 233 235 237 238 239 240 242 244 247 249 251 252 255 259 263 264 264 267 272 272 271 272 271 270 269 269 269 271 270 269 269 271 273 275 279 283 287 290
230 232 233 234 235 236 237 238 239 240 241 242 244 247 249 251 254 258 261 262 262 268 272 272 272 273 272 270 270 269 269 270 270 269 269 271 273 275 278 283 288 291
229 231 233 234 235 237 237 238 237 238 239 241 243 244 247 250 252 255 259 260 262 267 271 271 271 272 271 271 270 269 269 269 270 270 269 270 273 274 277 283 287 290
230 231 233 234 235 237 237 237 236 236 238 240 241 243 245 248 251 254 257 260 263 267 269 270 270 271 271 271 271 271 269 269 270 270 269 270 271 273 277 281 284 287
230 231 233 234 235 237 237 236 236 235 236 238 240 242 245 248 250 253 257 260 262 266 268 268 269 271 271 271 271 271 270 269 270 271 270 270 271 273 276 278 281 285
230 231 233 234 235 237 237 236 235 234 235 237 240 242 245 247 249 252 256 259 263 266 267 267 268 271 272 272 272 272 271 271 271 272 272 271 272 274 274 276 279 283
228 230 232 233 234 236 236 235 234 233 234 236 239 241 244 246 249 252 255 259 262 264 265 266 268 271 272 272 273 272 273 272 272 273 274 273 273 273 274 276 278 281
227 228 230 232 233 234 234 232 231 231 233 235 238 240 242 245 249 252 255 258 261 262 263 266 268 270 271 271 272 272 272 272 272 273 274 273 273 273 274 276 278 281
Height
5805 5808 5810 5811 5812 5814 5816 5817 5818 5819 5820 5821 5822 5823 5823 5823 5823 5823 5824 5823 5823 5822 5822 5821 5821 5820 5819 5818 5817 5817 5816 5815 5815 5814 5813 5812 5812 5811 5811 5810 5810 5809
5802 5804 5806 5808 5809 5811 5813 5814 5814 5815 5816 5818 5820 5820 5820 5820 5820 5821 5821 5821 5821 5820 5819 5819 5819 5818 5817 5816 5815 5815 5814 5814 5813 5813 5812 5811 5810 5810 5809 5809 5808 5808
5797 5801 5803 5805 5806 5808 5809 5810 5811 5812 5813 5814 5817 5817 5817 5817 5817 5818 5819 5818 5818 5817 5817 5817 5816 5816 5815 5814 5814 5813 5812 5812 5811 5811 5810 5809 5809 5808 5807 5807 5806 5806
5793 5797 5799 5801 5802 5803 5805 5806 5807 5808 5809 5811 5813 5814 5813 5814 5814 5815 5816 5816 5815 5815 5814 5814 5813 5813 5813 5812 5812 5811 5810 5810 5809 5809 5808 5807 5807 5806 5805 5805 5804 5803
5789 5793 5795 5796 5798 5799 5801 5802 5804 5805 5806 5807 5809 5810 5810 5811 5811 5812 5813 5813 5812 5812 5812 5812 5811 5810 5810 5810 5809 5809 5808 5808 5807 5807 5806 5806 5805 5804 5803 5803 5802 5801
5785 5788 5790 5792 5794 5796 5797 5799 5801 5802 5803 5804 5806 5807 5807 5807 5808 5809 5810 5810 5809 5809 5809 5809 5808 5808 5808 5808 5807 5806 5806 5806 5805 5804 5804 5803 5803 5802 5801 5801 5800 5799
5780 5783 5786 5788 5790 5792 5793 5795 5797 5798 5800 5801 5802 5803 5803 5804 5804 5805 5806 5807 5806 5806 5807 5807 5806 5806 5805 5805 5805 5804 5804 5803 5803 5802 5801 5801 5800 5799 5799 5798 5797 5797
5775 5779 5781 5783 5786 5788 5789 5791 5793 5795 5796 5797 5798 5799 5800 5800 5801 5802 5802 5803 5803 5803 5804 5804 5803 5803 5803 5802 5802 5802 5801 5801 5800 5799 5799 5798 5797 5797 5796 5795 5794 5794
5771 5774 5776 5779 5781 5784 5786 5788 5790 5792 5793 5794 5795 5796 5796 5797 5797 5798 5799 5800 5800 5800 5801 5801 5801 5800 5800 5800 5800 5799 5799 5798 5797 5797 5796 5795 5795 5794 5793 5793 5792 5791
5767 5770 5772 5774 5777 5780 5782 5784 5786 5788 5789 5790 5791 5792 5792 5793 5794 5794 5795 5796 5797 5797 5798 5798 5798 5797 5797 5797 5797 5796 5796 5795 5795 5794 5793 5793 5792 5791 5791 5790 5789 5789
5762 5765 5768 5770 5773 5776 5778 5780 5782 5783 5785 5787 5787 5788 5789 5789 5790 5791 5792 5793 5794 5794 5795 5795 5795 5794 5794 5794 5794 5794 5793 5793 5792 5791 5791 5790 5789 5789 5788 5788 5787 5786
5757 5760 5763 5766 5770 5772 5774 5776 5777 5778 5781 5783 5783 5784 5785 5785 5786 5787 5788 5790 5790 5791 5791 5791 5791 5791 5791 5791 5791 5791 5790 5790 5789 5789 5788 5787 5787 5786 5785 5785 5784 5783
5752 5756 5759 5762 5765 5767 5769 5771 5773 5774 5776 5778 5779 5780 5781 5782 5782 5783 5785 5786 5787 5787 5787 5787 5787 5788 5788 5788 5788 5788 5787 5787 5786 5786 5786 5785 5784 5783 5783 5782 5781 5781
5748 5751 5755 5758 5760 5762 5764 5766 5768 5770 5772 5774 5775 5776 5777 5778 5779 5780 5781 5783 5783 5784 5784 5784 5784 5785 5785 5785 5785 5785 5784 5784 5783 5783 5783 5782 5781 5780 5780 5779 5779 5778
5743 5746 5749 5752 5754 5756 5759 5761 5764 5765 5767 5769 5771 5772 5773 5774 5775 5775 5777 5779 5780 5780 5780 5780 5781 5781 5781 5781 5781 5781 5781 5781 5781 5780 5780 5780 5779 5778 5777 5776 5776 5775
5737 5741 5743 5746 5749 5752 5754 5757 5759 5761 5762 5765 5767 5769 5769 5770 5771 5771 5773 5775 5776 5777 5777 5777 5777 5778 5778 5778 5778 5778 5778 5778 5778 5778 5777 5777 5776 5775 5774 5773 5773 5773
5732 5735 5738 5741 5744 5747 5750 5752 5755 5756 5758 5761 5763 5764 5765 5766 5767 5768 5769 5772 5773 5773 5773 5773 5774 5775 5775 5774 5774 5775 5775 5775 5775 5774 5774 5774 5773 5772 5771 5770 5770 5770
5727 5729 5733 5737 5740 5743 5745 5747 5750 5752 5754 5756 5758 5760 5761 5762 5763 5764 5766 5768 5769 5769 5770 5770 5770 5771 5771 5770 5771 5772 5772 5771 5771 5771 5771 5770 5769 5768 5768 5767 5767 5767
5720 5723 5728 5732 5735 5738 5740 5742 5745 5748 5750 5752 5754 5755 5756 5757 5759 5760 5761 5764 5765 5766 5766 5766 5767 5768 5767 5767 5768 5768 5768 5768 5768 5767 5767 5767 5766 5765 5765 5764 5764 5764
5714 5718 5723 5726 5729 5732 5734 5737 5740 5743 5746 5747 5749 5750 5751 5753 5755 5756 5757 5760 5762 5762 5762 5762 5763 5764 5764 5764 5764 5765 5765 5765 5764 5764 5764 5763 5762 5762 5761 5761 5761 5760
5708 5713 5717 5720 5724 5726 5729 5732 5736 5739 5741 5742 5744 5746 5747 5749 5751 5752 5753 5756 5758 5758 5758 5758 5760 5760 5760 5760 5761 5761 5761 5761 5760 5761 5761 5760 5759 5758 5758 5758 5757 5757
5703 5708 5711 5715 5718 5721 5724 5727 5731 5734 5736 5737 5739 5741 5742 5744 5746 5747 5749 5752 5754 5754 5754 5754 5756 5756 5756 5756 5757 5757 5757 5757 5756 5757 5757 5756 5755 5755 5755 5755 5754 5753
5698 5702 5705 5709 5712 5715 5718 5722 5726 5730 5731 5732 5734 5736 5738 5740 5742 5743 5746 5748 5749 5750 5750 5750 5752 5752 5751 5752 5753 5753 5753 5753 5753 5753 5753 5752 5751 5751 5751 5751 5751 5749
5692 5696 5700 5703 5706 5709 5713 5717 5721 5725 5726 5727 5729 5731 5733 5736 5737 5739 5741 5743 5745 5747 5746 5746 5748 5748 5747 5748 5749 5749 5749 5749 5749 5750 5749 5748 5748 5748 5747 5747 5747 5746
5685 5690 5694 5697 5700 5703 5708 5712 5716 5719 5721 5722 5724 5726 5729 5731 5732 5735 5737 5739 5741 5742 5741 5742 5744 5744 5743 5744 5745 5746 5745 5745 5745 5745 5745 5744 5744 5744 5743 5742 5742 5742
5679 5684 5687 5690 5694 5698 5702 5706 5711 5713 5715 5717 5719 5721 5723 5726 5728 5730 5733 5735 5737 5737 5736 5738 5740 5740 5739 5740 5741 5741 5741 5740 5740 5741 5741 5740 5740 5739 5738 5738 5738 5738